Location: Ellerstadt
(49.4644°N, 8.2615°E)
Time: 00:11:30
(UTC+00:00)

CZ-2C R/B - Pass Details

Date: 03 March 2021
Orbit: 784 x 871 km, 98.2° (Epoch: 12 April)

Event Time Altitude Azimuth Distance (km) Brightness Sun altitude
Rises 19:40:08 0° 8° (N) 3,441 6.0 -24.3°
Reaches altitude 10° 19:42:41 10° 1° (N) 2,489 5.4 -24.7°
Maximum altitude 19:47:41 37° 296° (WNW) 1,295 4.2 -25.5°
Drops below altitude 10° 19:52:34 10° 231° (SW) 2,423 5.4 -26.2°
Sets 19:55:02 0° 223° (SW) 3,338 6.1 -26.6°
